Meteo Giornale » Osservazioni meteo Iran » Noshahr
ore: 22:30 - Osservazioni Meteo Noshahr
Lat. 36° 40' N Lon. 51° 28' E Alt. -19 metri s.l.m.
24 °C
Coperto
Temp. 24 Ore
22 °C
25 °C
Nord
5.5 Km/h
Dew point 19 °C
Umidità 73 %
Visibilità 6 Km
Il sole sorge alle ore 05:35
Il sole tramonta alle ore 18:33
| Data e Ora | Cielo e Fenomeni | T °C | DP °C | Um. % | Pres. hPa | Vis. km | Vento km/h | |
|---|---|---|---|---|---|---|---|---|
| Oggi h: 22:30 | Coperto | 24 | 19 | 73 | 1014 | 6 | N 5.5 | |
| Oggi h: 21:30 | Coperto | 24 | 20 | 78 | 1015 | 6 | SO 7.4 | |
| Oggi h: 20:30 | Foschia | 23 | 20 | 83 | 1015 | 5 | N 5.5 | |
| Oggi h: 19:30 | Foschia | 23 | 21 | 88 | 1014 | 4 | SO 9.3 | |
| Oggi h: 18:30 | Pioggia | 22 | 21 | 94 | 1014 | 3 | O/SO 9.3 | |
| Oggi h: 17:30 | Pioggia | 22 | 21 | 94 | 1014 | 3 | O/SO 11.1 | |
| Oggi h: 16:30 | Pioggia | 23 | 22 | 94 | 1013 | 3 | O/SO 13 | |
| Oggi h: 15:30 | Pioggia | 22 | 21 | 94 | 1013 | 3 | O/SO 13 | |
| Oggi h: 14:30 | Pioggia | 24 | 22 | 88 | 1013 | 3 | O/SO 11.1 | |
| Oggi h: 13:30 | Foschia | 24 | 22 | 88 | 1013 | 4 | O/SO 11.1 | |
| Oggi h: 12:30 | Foschia | 24 | 22 | 88 | 1013 | 4 | O/SO 13 | |
| Oggi h: 11:30 | Foschia | 24 | 22 | 88 | 1013 | 4 | O 14.8 | |
| Oggi h: 11:00 | Foschia | 24 | 22 | 88 | 1013 | 4 | O/SO 16.7 | |
| Oggi h: 10:30 | Foschia | 24 | 22 | 88 | 1013 | 4 | O/SO 18.5 | |
| Oggi h: 10:00 | Pioviggine | 24 | 22 | 88 | 1013 | 4 | O/SO 18.5 | |
| Oggi h: 09:30 | Pioviggine | 23 | 22 | 94 | 1013 | 3 | O/SO 14.8 | |
| Oggi h: 09:00 | Pioviggine | 23 | 22 | 94 | 1012 | 3 | O/SO 16.7 | |
| Oggi h: 08:30 | Pioviggine | 23 | 21 | 88 | 1012 | 3 | O 25.9 | |
| Oggi h: 07:30 | Molto Nuvoloso | 25 | 22 | 83 | 1012 | 10 | O 25.9 | |
| Oggi h: 06:30 | Molto Nuvoloso | 25 | 21 | 78 | 1011 | 10 | O 11.1 | |
| Oggi h: 05:30 | Molto Nuvoloso | 24 | 21 | 83 | 1011 | 10 | N 3.7 | |
| Oggi h: 04:30 | Coperto | 24 | 21 | 83 | 1010 | 10 | N 1.8 | |
| Oggi h: 03:30 | Coperto | 24 | 21 | 83 | 1010 | 8 | N 3.7 | |
| Oggi h: 02:30 | Coperto | 24 | 21 | 83 | 1010 | 10 | N 3.7 | |
| Oggi h: 01:30 | Coperto | 25 | 21 | 78 | 1010 | 10 | SO 7.4 | |
| Oggi h: 00:30 | Coperto | 25 | 22 | 83 | 1011 | 10 | O 14.8 | |



